Location: Dumpton Point
(51.3500°N, 1.4433°E)
Time: 22:19:40
(UTC+00:00)

Vanguard 1 - Pass Details

Date: 25 September 2022
Orbit: 650 x 3831 km, 34.2° (Epoch: 03 December)

Event Time Altitude Azimuth Distance (km) Brightness Sun altitude
Rises 18:05:27 0° 244° (WSW) 4,673 14.8 -3.9°
Reaches altitude 10° 18:10:22 10° 225° (SW) 3,106 13.3 -4.7°
Maximum altitude 18:14:26 16° 190° (S) 2,256 12.0 -5.3°
Drops below altitude 10° 18:17:41 10° 153° (SSE) 2,367 11.7 -5.8°
Enters shadow 18:20:17 - 132° (SE) 2,970 12.1 -6.2°
Sets 18:20:41 0° 129° (SE) 3,086 - -6.3°
